Chatham, MA

6:32 PM EDT on September 25, 2016 (GMT -0400)
Chatham Municipal

Weather History for KCQX - January, 2012

Change the Weather History Date:

Monday, January 9, 2012

  Actual Average Record
Temperature  
Mean Temperature 34 °F -  
Max Temperature 37 °F 37 °F 53 °F (1998)
Min Temperature 30 °F 24 °F 6 °F (2004)
Degree Days  
Heating Degree Days 32    
Moisture  
Dew Point 21 °F    
Average Humidity 60    
Maximum Humidity 70    
Minimum Humidity 46    
Precipitation  
Precipitation 0.00 in - - ()
Sea Level Pressure  
Sea Level Pressure 30.22 in    
Wind  
Wind Speed 6 mph (WSW)    
Max Wind Speed 9 mph    
Max Gust Speed -    
Visibility 10 miles    
Events      
Averages and records for this station are not official NWS values.
T = Trace of Precipitation, MM = Missing Value Source: NWS Daily Summary

Daily Weather History Graph

Daily Weather History Graph

Search for Another Location

Airport or City:

Trip Planner

Search our weather history database for the weather conditions in past years. The results will help you decide how hot, cold, wet, or windy it might be!

Date:

Astronomy

Jan. 09, 2012 Rise Set
Actual Time 7:06 AM EST 4:27 PM EST
Civil Twilight 6:35 AM EST 4:58 PM EST
Nautical Twilight 6:01 AM EST 5:33 PM EST
Astronomical Twilight 5:27 AM EST 6:06 PM EST
Moon 5:11 PM EST (1/9) 7:04 AM EST (1/9)
Length of Visible Light 10h 22m
Length of Day
9h 20m
Full, 100% of the Moon is Illuminated
Jan 9
Full
Jan 16
Last Quarter
Jan 23
New
Jan 30
First Quarter
Feb 7
Full

Hourly Weather History & Observations

Time (EST) Temp. Windchill Dew Point Humidity Pressure Visibility Wind Dir Wind Speed Gust Speed Precip Events Conditions
12:52 AM 34.0 °F 26.6 °F 21.9 °F 61% 30.24 in 10.0 mi NW 9.2 mph - N/A   Clear
1:52 AM 32.0 °F 26.4 °F 21.0 °F 64% 30.27 in 10.0 mi NNW 5.8 mph - N/A   Clear
2:52 AM 30.9 °F 26.2 °F 21.0 °F 67% 30.27 in 10.0 mi NNW 4.6 mph - N/A   Clear
3:52 AM 30.0 °F 26.5 °F 19.9 °F 66% 30.27 in 10.0 mi NNW 3.5 mph - N/A   Clear
4:52 AM 30.0 °F 25.2 °F 21.0 °F 69% 30.28 in 10.0 mi NNW 4.6 mph - N/A   Clear
5:52 AM 30.0 °F 25.2 °F 19.9 °F 66% 30.29 in 10.0 mi Variable 4.6 mph - N/A   Clear
6:52 AM 30.0 °F - 17.1 °F 59% 30.29 in 10.0 mi Calm Calm - N/A   Clear
7:52 AM 30.0 °F 26.5 °F 19.0 °F 64% 30.31 in 10.0 mi NNW 3.5 mph - N/A   Clear
8:52 AM 32.0 °F 27.5 °F 19.9 °F 61% 30.31 in 10.0 mi NNW 4.6 mph - N/A   Clear
9:52 AM 34.0 °F 31.0 °F 19.9 °F 56% 30.31 in 10.0 mi Variable 3.5 mph - N/A   Clear
11:52 AM 37.0 °F - 18.0 °F 46% 30.25 in 10.0 mi Calm Calm - N/A   Clear
12:52 PM 37.9 °F 32.7 °F 19.0 °F 47% 30.22 in 10.0 mi SSW 6.9 mph - N/A   Clear
1:52 PM 36.0 °F 30.3 °F 21.0 °F 55% 30.21 in 10.0 mi SSW 6.9 mph - N/A   Clear
2:52 PM 36.0 °F 32.1 °F 21.9 °F 57% 30.20 in 10.0 mi Variable 4.6 mph - N/A   Clear
3:52 PM 35.1 °F 30.1 °F 18.0 °F 50% 30.19 in 10.0 mi SSW 5.8 mph - N/A   Clear
4:52 PM 33.1 °F 27.7 °F 21.9 °F 64% 30.19 in 10.0 mi SW 5.8 mph - N/A   Clear
5:52 PM 34.0 °F 27.2 °F 21.9 °F 61% 30.18 in 10.0 mi SW 8.1 mph - N/A   Clear
6:52 PM 34.0 °F 28.0 °F 19.9 °F 56% 30.17 in 10.0 mi SW 6.9 mph - N/A   Clear
7:52 PM 35.1 °F 30.1 °F 21.9 °F 59% 30.14 in 10.0 mi SW 5.8 mph - N/A   Clear
9:52 PM 36.0 °F 29.6 °F 27.0 °F 70% 30.11 in 10.0 mi SSW 8.1 mph - N/A   Clear
10:52 PM 36.0 °F 32.1 °F 26.1 °F 67% 30.07 in 10.0 mi South 4.6 mph - N/A   Mostly Cloudy
11:52 PM 37.0 °F 32.4 °F 26.1 °F 65% 30.04 in 10.0 mi South 5.8 mph - N/A   Overcast